Location: Banios
(43.0451°N, 0.2335°E)
Time: 01:15:33
(UTC+00:00)

Explorer 7 - All Passes

Search period start: 12 May 2021 00:00
Search period end: 22 May 2021 00:00
Orbit: 484 x 677 km, 50.3° (Epoch: 11 May)

Date Brightness Start Highest point End Pass type
(mag) Time Alt. Az. Time Alt. Az. Time Alt. Az.
12 May - 10:29:52 10° S 10:32:57 23° SE 10:35:57 10° E daylight
12 May - 12:09:21 10° WSW 12:13:07 64° NNW 12:16:51 10° ENE daylight
12 May - 13:50:46 10° WNW 13:54:02 27° N 13:57:19 10° NE daylight
12 May - 15:31:42 10° NW 15:35:11 33° NNE 15:38:44 10° E daylight
12 May - 17:12:03 10° WNW 17:15:51 72° SSW 17:19:50 10° SE daylight
12 May - 18:54:07 10° WSW 18:55:47 12° SW 18:57:30 10° SSW daylight
13 May - 10:33:38 10° SSW 10:37:12 37° SE 10:40:42 10° ENE daylight
13 May - 12:13:56 10° W 12:17:35 46° NNW 12:21:14 10° NE daylight
13 May - 13:55:25 10° WNW 13:58:39 26° N 14:01:53 10° ENE daylight
13 May - 15:36:07 10° NW 15:39:43 42° NNE 15:43:25 10° E daylight
13 May - 17:16:32 10° WNW 17:20:12 45° SW 17:24:01 10° SE daylight
14 May - 10:37:43 10° SW 10:41:32 60° SE 10:45:15 10° ENE daylight
14 May - 12:18:37 10° W 12:22:08 35° NNW 12:25:37 10° NE daylight
14 May - 14:00:01 10° NW 14:03:16 27° N 14:06:32 10° ENE daylight
14 May - 15:40:30 10° NW 15:44:13 57° NNE 15:48:03 10° ESE daylight
14 May - 17:21:11 10° WNW 17:24:30 28° SW 17:27:55 10° SSE daylight
15 May - 09:03:23 10° S 09:05:52 16° SE 09:08:20 10° E daylight
15 May - 10:42:03 10° WSW 10:45:55 87° NNW 10:49:41 10° ENE daylight
15 May - 12:23:20 10° WNW 12:26:43 30° N 12:30:03 10° NE daylight
15 May - 14:04:31 10° NW 14:07:52 29° N 14:11:14 10° ENE daylight
15 May - 15:44:53 10° WNW 15:48:40 83° NNE 15:52:33 10° ESE daylight
15 May - 17:26:08 10° W 17:28:44 17° SW 17:31:24 10° S daylight
16 May - 09:06:46 10° SSW 09:10:07 26° SE 09:13:20 10° E daylight
16 May - 10:46:32 10° WSW 10:50:21 59° NNW 10:54:05 10° NE daylight
16 May - 12:28:02 10° WNW 12:31:18 27° N 12:34:33 10° NE daylight
16 May - 14:08:58 10° NW 14:12:27 35° NNE 14:15:57 10° E daylight
16 May - 15:49:19 10° WNW 15:53:03 64° SW 15:56:54 10° SE daylight
16 May - 17:32:24 10° WSW 17:32:55 10° SW 17:33:26 10° SW daylight
17 May - 09:10:38 10° SSW 09:14:23 42° SE 09:18:01 10° ENE daylight
17 May - 10:51:09 10° W 10:54:50 43° NNW 10:58:27 10° NE daylight
17 May - 12:32:40 10° WNW 12:35:55 26° N 12:39:08 10° ENE daylight
17 May - 14:13:21 10° NW 14:16:58 44° NNE 14:20:38 10° E daylight
17 May - 15:53:51 10° WNW 15:57:23 39° SW 16:01:01 10° SSE daylight
18 May - 07:37:27 10° SSE 07:38:49 11° SE 07:40:11 10° ESE daylight
18 May - 09:14:47 10° SW 09:18:44 69° SSE 09:22:31 10° ENE daylight
18 May - 10:55:51 10° W 10:59:23 34° NNW 11:02:51 10° NE daylight
18 May - 12:37:14 10° NW 12:40:31 27° N 12:43:47 10° ENE daylight
18 May - 14:17:43 10° NW 14:21:27 62° NNE 14:25:13 10° ESE daylight
18 May - 15:58:33 10° W 16:01:39 24° SW 16:04:49 10° SSE daylight
19 May - 07:40:06 10° S 07:43:00 19° SE 07:45:50 10° E daylight
19 May - 09:19:09 10° WSW 09:23:07 79° NNW 09:26:56 10° ENE daylight
19 May - 11:00:33 10° WNW 11:03:57 29° N 11:07:18 10° NE daylight
19 May - 12:41:44 10° NW 12:45:07 30° NNE 12:48:29 10° ENE daylight
19 May - 14:22:07 10° WNW 14:25:53 89° SSW 14:29:41 10° ESE daylight
19 May - 16:03:40 10° W 16:05:52 15° SW 16:08:05 10° SSW daylight
20 May - 07:43:39 10° SSW 07:47:14 30° SE 07:50:42 10° ENE daylight
20 May - 09:23:40 10° WSW 09:27:34 54° NNW 09:31:19 10° NE daylight
20 May - 11:05:15 10° WNW 11:08:33 27° N 11:11:48 10° NE daylight
20 May - 12:46:09 10° NW 12:49:41 36° NNE 12:53:11 10° E daylight
20 May - 14:26:34 10° WNW 14:30:15 56° SW 14:33:58 10° SE daylight
21 May - 07:47:36 10° SW 07:51:32 49° SE 07:55:18 10° ENE daylight
21 May - 09:28:18 10° W 09:32:04 41° NNW 09:35:41 10° NE daylight
21 May - 11:09:52 10° WNW 11:13:10 26° N 11:16:23 10° ENE daylight
21 May - 12:50:32 10° NW 12:54:12 48° NNE 12:57:50 10° E daylight
21 May - 14:31:08 10° WNW 14:34:33 34° SW 14:38:01 10° SSE daylight
